Location: Karcze
(52.0945°N, 22.4786°E)
Time: 07:36:05
(UTC+00:00)

Transit 2A Rocket - Pass Details

Date: 30 July 2021
Orbit: 586 x 917 km, 66.7° (Epoch: 24 September)

Event Time Altitude Azimuth Distance (km) Brightness Sun altitude
Rises 11:54:07 0° 162° (SSE) 2,847 8.3 53.0°
Reaches altitude 10° 11:57:15 10° 137° (SE) 1,992 7.4 52.8°
Maximum altitude 11:59:36 14° 106° (ESE) 1,770 6.9 52.6°
Drops below altitude 10° 12:02:02 10° 74° (ENE) 2,084 7.1 52.3°
Sets 12:05:26 0° 50° (NE) 3,076 7.8 52.0°
